Location: ????????
(55.3975°N, 38.2844°E)
Time: 13:16:30
(UTC+00:00)

BlueWalker 3 - Pass Details

Date: 15 August 2024
Orbit: 475 x 487 km, 53.2° (Epoch: 14 September)

Event Time Altitude Azimuth Distance (km) Brightness Sun altitude
Exits shadow 23:34:38 34° 236° (SW) 832 2.5 -16.2°
Maximum altitude 23:36:04 59° 171° (S) 573 1.9 -16.1°
Drops below altitude 10° 23:39:49 10° 92° (E) 1,688 5.0 -15.8°
Sets 23:42:01 0° 88° (E) 2,571 6.0 -15.7°
